| time (UTC) | temp C | wind direction | speed KPH | gust KPH | rain 1hr cm | rain 24hr cm | rain mn cm | humidity % | barometer mb |
| 20260504233759 | 27 | 143 | 17.7 | 27.4 | 0.00 | 0.00 | 0.00 | 53 | 1002.8 |
| 20260504233255 | 27 | 163 | 4.8 | 12.9 | 0.00 | 0.00 | 0.00 | 53 | 1002.6 |
| 20260504232752 | 27 | 252 | 6.4 | 27.4 | 0.00 | 0.00 | 0.00 | 54 | 1002.7 |
| 20260504232249 | 27 | 206 | 11.3 | 14.5 | 0.00 | 0.00 | 0.00 | 53 | 1002.8 |
| 20260504231746 | 27 | 205 | 17.7 | 29.0 | 0.00 | 0.00 | 0.00 | 53 | 1002.8 |
| 20260504231242 | 27 | 352 | 8.0 | 20.9 | 0.00 | 0.00 | 0.00 | 54 | 1003.1 |
| 20260504230738 | 27 | 202 | 14.5 | 17.7 | 0.00 | 0.00 | 0.00 | 52 | 1003.1 |
| 20260504230237 | 27 | 197 | 8.0 | 12.9 | 0.00 | 0.00 | 0.00 | 53 | 1003.2 |
| 20260504225735 | 27 | 198 | 17.7 | 22.5 | 0.00 | 0.00 | 0.00 | 53 | 1003.2 |
| 20260504225231 | 27 | 148 | 11.3 | 22.5 | 0.00 | 0.00 | 0.00 | 53 | 1003.2 |
| 20260504224729 | 27 | 194 | 12.9 | 17.7 | 0.00 | 0.00 | 0.00 | 52 | 1003.2 |
| 20260504224226 | 27 | 205 | 3.2 | 16.1 | 0.00 | 0.00 | 0.00 | 52 | 1003.1 |
| 20260504223722 | 27 | 180 | 6.4 | 11.3 | 0.00 | 0.00 | 0.00 | 52 | 1003.3 |
| 20260504223217 | 27 | 175 | 6.4 | 16.1 | 0.00 | 0.00 | 0.00 | 53 | 1003.2 |
| 20260504222715 | 27 | 227 | 12.9 | 17.7 | 0.00 | 0.00 | 0.00 | 52 | 1003.3 |
| 20260504222212 | 27 | 188 | 17.7 | 25.7 | 0.00 | 0.00 | 0.00 | 51 | 1003.4 |
| 20260504221709 | 27 | 290 | 6.4 | 20.9 | 0.00 | 0.00 | 0.00 | 52 | 1003.5 |
| 20260504221206 | 27 | 191 | 3.2 | 22.5 | 0.00 | 0.00 | 0.00 | 52 | 1003.5 |
| 20260504220702 | 27 | 183 | 11.3 | 14.5 | 0.00 | 0.00 | 0.00 | 51 | 1003.5 |
| 20260504220200 | 27 | 252 | 6.4 | 17.7 | 0.00 | 0.00 | 0.00 | 51 | 1003.7 |
| 20260504215656 | 27 | 189 | 11.3 | 37.0 | 0.00 | 0.00 | 0.00 | 51 | 1003.8 |
| 20260504215154 | 27 | 200 | 9.7 | 16.1 | 0.00 | 0.00 | 0.00 | 51 | 1003.8 |
| 20260504214649 | 27 | 207 | 6.4 | 22.5 | 0.00 | 0.00 | 0.00 | 51 | 1003.7 |
| 20260504214146 | 27 | 182 | 8.0 | 17.7 | 0.00 | 0.00 | 0.00 | 50 | 1004.0 |
| 20260504213643 | 27 | 191 | 12.9 | 17.7 | 0.00 | 0.00 | 0.00 | 50 | 1004.0 |
| 20260504213139 | 27 | 91 | 8.0 | 17.7 | 0.00 | 0.00 | 0.00 | 50 | 1004.2 |
| 20260504212636 | 27 | 162 | 9.7 | 24.1 | 0.00 | 0.00 | 0.00 | 50 | 1004.1 |
| 20260504212132 | 27 | 147 | 12.9 | 20.9 | 0.00 | 0.00 | 0.00 | 49 | 1004.0 |
| 20260504211630 | 27 | 201 | 9.7 | 14.5 | 0.00 | 0.00 | 0.00 | 49 | 1004.3 |
| 20260504211126 | 27 | 121 | 1.6 | 9.7 | 0.00 | 0.00 | 0.00 | 48 | 1004.4 |
| 20260504210624 | 27 | 193 | 8.0 | 33.8 | 0.00 | 0.00 | 0.00 | 48 | 1004.5 |
| 20260504210120 | 27 | 189 | 6.4 | 22.5 | 0.00 | 0.00 | 0.00 | 48 | 1004.6 |
| 20260504205618 | 27 | 245 | 12.9 | 20.9 | 0.00 | 0.00 | 0.00 | 47 | 1004.6 |
| 20260504205115 | 28 | 242 | 11.3 | 22.5 | 0.00 | 0.00 | 0.00 | 46 | 1004.8 |
| 20260504204614 | 27 | 223 | 3.2 | 17.7 | 0.00 | 0.00 | 0.00 | 47 | 1004.7 |
| 20260504204112 | 28 | 259 | 19.3 | 25.7 | 0.00 | 0.00 | 0.00 | 47 | 1004.7 |
| 20260504203611 | 27 | 185 | 9.7 | 17.7 | 0.00 | 0.00 | 0.00 | 47 | 1005.0 |
| 20260504203108 | 28 | 193 | 8.0 | 24.1 | 0.00 | 0.00 | 0.00 | 46 | 1004.9 |
| 20260504202603 | 27 | 197 | 11.3 | 17.7 | 0.00 | 0.00 | 0.00 | 46 | 1005.0 |
| 20260504202100 | 28 | 120 | 19.3 | 24.1 | 0.00 | 0.00 | 0.00 | 46 | 1005.0 |
| 20260504201557 | 28 | 236 | 14.5 | 27.4 | 0.00 | 0.00 | 0.00 | 46 | 1005.1 |
| 20260504201055 | 28 | 204 | 9.7 | 14.5 | 0.00 | 0.00 | 0.00 | 46 | 1005.2 |
| 20260504200551 | 27 | 218 | 6.4 | 16.1 | 0.00 | 0.00 | 0.00 | 46 | 1005.0 |
| 20260504200048 | 28 | 183 | 11.3 | 17.7 | 0.00 | 0.00 | 0.00 | 44 | 1005.4 |
| 20260504195544 | 27 | 234 | 16.1 | 25.7 | 0.00 | 0.00 | 0.00 | 45 | 1005.6 |
| 20260504195040 | 28 | 282 | 9.7 | 16.1 | 0.00 | 0.00 | 0.00 | 45 | 1005.6 |
| 20260504194537 | 27 | 186 | 17.7 | 22.5 | 0.00 | 0.00 | 0.00 | 46 | 1005.6 |
| 20260504194033 | 27 | 217 | 14.5 | 25.7 | 0.00 | 0.00 | 0.00 | 45 | 1005.6 |
| 20260504193529 | 27 | 169 | 3.2 | 20.9 | 0.00 | 0.00 | 0.00 | 46 | 1005.8 |
| 20260504193028 | 27 | 205 | 16.1 | 38.6 | 0.00 | 0.00 | 0.00 | 46 | 1006.0 |
| 20260504192526 | 27 | 198 | 14.5 | 27.4 | 0.00 | 0.00 | 0.00 | 46 | 1006.0 |
| 20260504192024 | 27 | 179 | 9.7 | 37.0 | 0.00 | 0.00 | 0.00 | 46 | 1005.9 |
| 20260504191521 | 27 | 225 | 19.3 | 25.7 | 0.00 | 0.00 | 0.00 | 46 | 1006.1 |
| 20260504191017 | 27 | 182 | 6.4 | 24.1 | 0.00 | 0.00 | 0.00 | 45 | 1006.1 |
| 20260504190513 | 26 | 231 | 11.3 | 24.1 | 0.00 | 0.00 | 0.00 | 45 | 1006.1 |
| 20260504190009 | 26 | 240 | 16.1 | 29.0 | 0.00 | 0.00 | 0.00 | 46 | 1006.4 |
| 20260504185507 | 27 | 198 | 6.4 | 14.5 | 0.00 | 0.00 | 0.00 | 46 | 1006.3 |
| 20260504185004 | 26 | 250 | 8.0 | 16.1 | 0.00 | 0.00 | 0.00 | 46 | 1006.4 |
| 20260504184459 | 26 | 200 | 14.5 | 27.4 | 0.00 | 0.00 | 0.00 | 46 | 1006.6 |
| 20260504183954 | 26 | 203 | 14.5 | 24.1 | 0.00 | 0.00 | 0.00 | 46 | 1006.7 |
| 20260504183452 | 26 | 198 | 9.7 | 17.7 | 0.00 | 0.00 | 0.00 | 46 | 1006.6 |
| 20260504182950 | 26 | 187 | 9.7 | 29.0 | 0.00 | 0.00 | 0.00 | 47 | 1006.6 |
| 20260504182446 | 26 | 193 | 16.1 | 25.7 | 0.00 | 0.00 | 0.00 | 46 | 1006.7 |
| 20260504181944 | 26 | 166 | 16.1 | 27.4 | 0.00 | 0.00 | 0.00 | 47 | 1006.7 |
| 20260504181441 | 26 | 178 | 9.7 | 22.5 | 0.00 | 0.00 | 0.00 | 46 | 1006.7 |
| 20260504180939 | 26 | 191 | 17.7 | 24.1 | 0.00 | 0.00 | 0.00 | 46 | 1006.9 |
| 20260504180438 | 26 | 194 | 19.3 | 27.4 | 0.00 | 0.00 | 0.00 | 46 | 1006.8 |
| 20260504175936 | 26 | 241 | 12.9 | 25.7 | 0.00 | 0.00 | 0.00 | 46 | 1007.0 |
| 20260504175433 | 25 | 220 | 12.9 | 20.9 | 0.00 | 0.00 | 0.00 | 46 | 1007.1 |
| 20260504174930 | 25 | 181 | 14.5 | 33.8 | 0.00 | 0.00 | 0.00 | 46 | 1007.2 |
| 20260504174427 | 26 | 172 | 12.9 | 24.1 | 0.00 | 0.00 | 0.00 | 46 | 1007.5 |
| 20260504173925 | 26 | 218 | 12.9 | 22.5 | 0.00 | 0.00 | 0.00 | 46 | 1007.4 |
| 20260504173421 | 25 | 174 | 9.7 | 25.7 | 0.00 | 0.00 | 0.00 | 45 | 1007.5 |
| 20260504172919 | 25 | 238 | 19.3 | 24.1 | 0.00 | 0.00 | 0.00 | 45 | 1007.4 |
| 20260504172415 | 25 | 203 | 14.5 | 20.9 | 0.00 | 0.00 | 0.00 | 45 | 1007.4 |
| 20260504171911 | 26 | 131 | 12.9 | 17.7 | 0.00 | 0.00 | 0.00 | 45 | 1007.5 |
| 20260504171409 | 25 | 210 | 12.9 | 27.4 | 0.00 | 0.00 | 0.00 | 45 | 1007.6 |
| 20260504170905 | 25 | 222 | 8.0 | 22.5 | 0.00 | 0.00 | 0.00 | 45 | 1007.5 |
| 20260504170402 | 25 | 199 | 12.9 | 27.4 | 0.00 | 0.00 | 0.00 | 47 | 1007.6 |
| 20260504160321 | 23 | 227 | 11.3 | 24.1 | 0.00 | 0.00 | 0.00 | 48 | 1008.1 |
| 20260504150745 | 22 | 190 | 11.3 | 16.1 | 0.00 | 0.00 | 0.00 | 50 | 1008.5 |
| 20260504150242 | 21 | 214 | 16.1 | 29.0 | 0.00 | 0.00 | 0.00 | 50 | 1008.6 |
| 20260504141212 | 20 | 182 | 11.3 | 20.9 | 0.00 | 0.00 | 0.00 | 53 | 1008.9 |
| 20260504140708 | 20 | 171 | 14.5 | 20.9 | 0.00 | 0.00 | 0.00 | 53 | 1008.7 |
| 20260504140203 | 20 | 208 | 6.4 | 17.7 | 0.00 | 0.00 | 0.00 | 53 | 1008.8 |
| 20260504130632 | 18 | 182 | 17.7 | 29.0 | 0.00 | 0.00 | 0.00 | 57 | 1009.0 |
| 20260504130129 | 18 | 220 | 14.5 | 22.5 | 0.00 | 0.00 | 0.00 | 57 | 1009.2 |
| 20260504110520 | 17 | 199 | 6.4 | 14.5 | 0.00 | 0.00 | 0.00 | 55 | 1009.3 |
| 20260504100436 | 18 | 149 | 8.0 | 16.1 | 0.00 | 0.00 | 0.00 | 51 | 1009.5 |
| 20260504081829 | 20 | 238 | 6.4 | 14.5 | 0.00 | 0.00 | 0.00 | 45 | 1010.3 |
| 20260504081326 | 20 | 161 | 16.1 | 22.5 | 0.00 | 0.00 | 0.00 | 45 | 1010.4 |
| 20260504080822 | 20 | 196 | 4.8 | 12.9 | 0.00 | 0.00 | 0.00 | 45 | 1010.5 |
| 20260504080319 | 20 | 209 | 12.9 | 14.5 | 0.00 | 0.00 | 0.00 | 45 | 1010.3 |
| 20260504070246 | 20 | 189 | 9.7 | 20.9 | 0.00 | 0.00 | 0.00 | 42 | 1011.1 |
| 20260504060207 | 21 | 120 | 6.4 | 17.7 | 0.00 | 0.00 | 0.00 | 40 | 1012.0 |
| 20260504050629 | 21 | 200 | 12.9 | 22.5 | 0.00 | 0.00 | 0.00 | 40 | 1012.5 |
| 20260504050127 | 21 | 165 | 9.7 | 17.7 | 0.00 | 0.00 | 0.00 | 41 | 1012.7 |
| 20260504045624 | 21 | 176 | 6.4 | 14.5 | 0.00 | 0.00 | 0.00 | 40 | 1012.7 |
| 20260504045124 | 21 | 226 | 14.5 | 20.9 | 0.00 | 0.00 | 0.00 | 40 | 1012.6 |
| 20260504044622 | 21 | 172 | 9.7 | 12.9 | 0.00 | 0.00 | 0.00 | 40 | 1012.6 |
| 20260504044118 | 21 | 193 | 9.7 | 33.8 | 0.00 | 0.00 | 0.00 | 40 | 1012.4 |
| 20260504043615 | 21 | 185 | 16.1 | 25.7 | 0.00 | 0.00 | 0.00 | 40 | 1012.6 |
| 20260504043113 | 21 | 269 | 9.7 | 22.5 | 0.00 | 0.00 | 0.00 | 40 | 1012.6 |
| 20260504042610 | 21 | 206 | 11.3 | 25.7 | 0.00 | 0.00 | 0.00 | 40 | 1012.6 |
| 20260504042107 | 21 | 208 | 9.7 | 14.5 | 0.00 | 0.00 | 0.00 | 40 | 1012.5 |
| 20260504041602 | 21 | 162 | 9.7 | 16.1 | 0.00 | 0.00 | 0.00 | 39 | 1012.5 |
| 20260504041059 | 22 | 208 | 4.8 | 24.1 | 0.00 | 0.00 | 0.00 | 39 | 1012.6 |
| 20260504040556 | 22 | 186 | 4.8 | 12.9 | 0.00 | 0.00 | 0.00 | 39 | 1012.5 |
| 20260504040053 | 22 | 177 | 8.0 | 9.7 | 0.00 | 0.00 | 0.00 | 38 | 1012.9 |
| 20260504035549 | 22 | 202 | 9.7 | 20.9 | 0.00 | 0.00 | 0.00 | 38 | 1012.8 |
| 20260504035045 | 22 | 197 | 14.5 | 22.5 | 0.00 | 0.00 | 0.00 | 38 | 1012.9 |
| 20260504034544 | 22 | 211 | 12.9 | 17.7 | 0.00 | 0.00 | 0.00 | 38 | 1012.9 |
| 20260504034035 | 22 | 153 | 8.0 | 11.3 | 0.00 | 0.00 | 0.00 | 38 | 1012.7 |
| 20260504033533 | 22 | 189 | 11.3 | 17.7 | 0.00 | 0.00 | 0.00 | 38 | 1013.0 |
| 20260504033030 | 22 | 203 | 3.2 | 25.7 | 0.00 | 0.00 | 0.00 | 37 | 1013.1 |
| 20260504032527 | 22 | 228 | 11.3 | 20.9 | 0.00 | 0.00 | 0.00 | 37 | 1013.0 |
| 20260504032024 | 22 | 206 | 8.0 | 16.1 | 0.00 | 0.00 | 0.00 | 37 | 1012.9 |
| 20260504031521 | 22 | 181 | 9.7 | 22.5 | 0.00 | 0.00 | 0.00 | 37 | 1012.8 |
| 20260504031017 | 22 | 184 | 9.7 | 14.5 | 0.00 | 0.00 | 0.00 | 37 | 1012.9 |
| 20260504030515 | 22 | 183 | 9.7 | 16.1 | 0.00 | 0.00 | 0.00 | 37 | 1013.0 |
| 20260504030010 | 22 | 219 | 6.4 | 14.5 | 0.00 | 0.00 | 0.00 | 37 | 1012.8 |
| 20260504025508 | 23 | 181 | 6.4 | 14.5 | 0.00 | 0.00 | 0.00 | 37 | 1013.0 |
| 20260504025005 | 23 | 189 | 8.0 | 14.5 | 0.00 | 0.00 | 0.00 | 36 | 1012.8 |
| 20260504024502 | 23 | 208 | 6.4 | 24.1 | 0.00 | 0.00 | 0.00 | 36 | 1012.9 |
| 20260504023959 | 23 | 188 | 12.9 | 22.5 | 0.00 | 0.00 | 0.00 | 36 | 1012.8 |
| 20260504023455 | 23 | 199 | 8.0 | 20.9 | 0.00 | 0.00 | 0.00 | 35 | 1012.8 |
| 20260504022950 | 23 | 218 | 9.7 | 16.1 | 0.00 | 0.00 | 0.00 | 35 | 1012.7 |
| 20260504022447 | 23 | 186 | 14.5 | 20.9 | 0.00 | 0.00 | 0.00 | 35 | 1012.8 |
| 20260504021944 | 23 | 274 | 8.0 | 17.7 | 0.00 | 0.00 | 0.00 | 35 | 1012.7 |
| 20260504021441 | 23 | 184 | 11.3 | 14.5 | 0.00 | 0.00 | 0.00 | 35 | 1012.7 |
| 20260504020938 | 23 | 153 | 4.8 | 20.9 | 0.00 | 0.00 | 0.00 | 34 | 1012.7 |
| 20260504020435 | 23 | 217 | 8.0 | 17.7 | 0.00 | 0.00 | 0.00 | 34 | 1012.7 |
| 20260504015931 | 23 | 210 | 3.2 | 12.9 | 0.00 | 0.00 | 0.00 | 34 | 1012.6 |
| 20260504015427 | 24 | 246 | 8.0 | 22.5 | 0.00 | 0.00 | 0.00 | 33 | 1012.7 |
| 20260504014923 | 24 | 205 | 12.9 | 16.1 | 0.00 | 0.00 | 0.00 | 33 | 1012.4 |
| 20260504014420 | 24 | 209 | 9.7 | 16.1 | 0.00 | 0.00 | 0.00 | 33 | 1012.5 |
| 20260504013916 | 24 | 221 | 9.7 | 20.9 | 0.00 | 0.00 | 0.00 | 32 | 1012.4 |
| 20260504013415 | 25 | 206 | 12.9 | 22.5 | 0.00 | 0.00 | 0.00 | 32 | 1012.3 |
| 20260504012911 | 25 | 191 | 16.1 | 20.9 | 0.00 | 0.00 | 0.00 | 32 | 1012.4 |
| 20260504012409 | 25 | 209 | 9.7 | 12.9 | 0.00 | 0.00 | 0.00 | 32 | 1012.3 |
| 20260504011906 | 25 | 160 | 16.1 | 22.5 | 0.00 | 0.00 | 0.00 | 31 | 1012.5 |
| 20260504011403 | 25 | 127 | 9.7 | 22.5 | 0.00 | 0.00 | 0.00 | 31 | 1012.3 |
| 20260504010858 | 25 | 181 | 4.8 | 27.4 | 0.00 | 0.00 | 0.00 | 30 | 1012.5 |
| 20260504010354 | 25 | 179 | 14.5 | 20.9 | 0.00 | 0.00 | 0.00 | 29 | 1012.4 |
| 20260504005845 | 25 | 160 | 9.7 | 22.5 | 0.00 | 0.00 | 0.00 | 29 | 1012.4 |
| 20260504005342 | 26 | 215 | 14.5 | 27.4 | 0.00 | 0.00 | 0.00 | 28 | 1012.3 |
| 20260504004840 | 26 | 207 | 8.0 | 20.9 | 0.00 | 0.00 | 0.00 | 28 | 1012.5 |
| 20260504004337 | 26 | 163 | 9.7 | 22.5 | 0.00 | 0.00 | 0.00 | 28 | 1012.3 |
| 20260504003833 | 26 | 187 | 14.5 | 16.1 | 0.00 | 0.00 | 0.00 | 28 | 1012.4 |
| 20260504003330 | 26 | 242 | 9.7 | 16.1 | 0.00 | 0.00 | 0.00 | 28 | 1012.4 |
| 20260504002827 | 26 | 121 | 16.1 | 20.9 | 0.00 | 0.00 | 0.00 | 27 | 1012.6 |
| 20260504002324 | 27 | 148 | 9.7 | 14.5 | 0.00 | 0.00 | 0.00 | 27 | 1012.5 |
| 20260504001822 | 27 | 168 | 11.3 | 20.9 | 0.00 | 0.00 | 0.00 | 27 | 1012.7 |
| 20260504001319 | 27 | 195 | 6.4 | 24.1 | 0.00 | 0.00 | 0.00 | 26 | 1012.6 |
| 20260504000815 | 27 | 264 | 11.3 | 22.5 | 0.00 | 0.00 | 0.00 | 26 | 1012.7 |
| 20260504000312 | 27 | 239 | 8.0 | 12.9 | 0.00 | 0.00 | 0.00 | 26 | 1012.8 |
| 20260503235810 | 27 | 203 | 16.1 | 22.5 | 0.00 | 0.00 | 0.00 | 26 | 1012.6 |
| 20260503235308 | 27 | 164 | 12.9 | 24.1 | 0.00 | 0.00 | 0.00 | 26 | 1012.7 |
| 20260503234805 | 27 | 196 | 12.9 | 22.5 | 0.00 | 0.00 | 0.00 | 25 | 1012.9 |
| 20260503234303 | 28 | 303 | 14.5 | 24.1 | 0.00 | 0.00 | 0.00 | 24 | 1012.8 |